Location: ????????
(60.5616°N, 46.8254°E)
Time: 16:44:47
(UTC+00:00)

Cosmos 1125 Rocket - Pass Details

Date: 18 February 2020
Orbit: 757 x 780 km, 74.0° (Epoch: 06 April)

Event Time Altitude Azimuth Distance (km) Brightness Sun altitude
Rises 18:07:29 0° 326° (NW) 3,268 7.8 -31.1°
Reaches altitude 10° 18:09:52 10° 327° (NNW) 2,340 6.8 -31.4°
Enters shadow 18:13:41 48° 331° (NNW) 1,013 4.3 -31.7°
